Weather History for Martinsville, VA

Change the Weather History Date:

Thursday, March 28, 2013

  Actual Average (KGSO) Record (KGSO)
Temperature  
Mean Temperature 41 °F 54 °F  
Max Temperature 54 °F 65 °F 87 °F (1907)
Min Temperature 28 °F 42 °F 20 °F (1982)
Degree Days  
Heating Degree Days 24 12  
Month to date heating degree days 436  
Since 1 July heating degree days 3291  
Cooling Degree Days 0 0  
Month to date cooling degree days 0  
Year to date cooling degree days 0  
Moisture  
Dew Point 29 °F    
Average Humidity 64    
Maximum Humidity 96    
Minimum Humidity 38    
Precipitation  
Precipitation 0.00 in 0.13 in 2.86 in (2010)
Month to date precipitation 3.36  
Year to date precipitation 9.38  
Snow  
Snow 0.00 in 0.00 in T in (2011)
Month to date snowfall 0.8  
Since 1 July snowfall 7.5  
Snow Depth -    
Sea Level Pressure  
Sea Level Pressure 30.25 in    
Wind  
Wind Speed 5 mph (NW)    
Max Wind Speed 18 mph    
Max Gust Speed 28 mph    
Visibility 10 miles    
Events      
T = Trace of Precipitation, MM = Missing Value Source: NWS Daily Summary

Daily Weather History Graph

Daily Weather History Graph

Search for Another Location

Airport:

Trip Planner

Search our weather history database for the weather conditions in past years. The results will help you decide how hot, cold, wet, or windy it might be!

Date:

Astronomy

Mar. 28, 2013 Rise Set
Actual Time 7:11 AM EDT 7:39 PM EDT
Civil Twilight 6:45 AM EDT 8:04 PM EDT
Nautical Twilight 6:15 AM EDT 8:35 PM EDT
Astronomical Twilight 5:44 AM EDT 9:06 PM EDT
Moon 9:25 PM EDT (3/28) 7:41 AM EDT (3/28)
Length of Visible Light 13h 19m
Length of Day
12h 27m
Full, 98% of the Moon is Illuminated
Mar 28
Full
Apr 3
Last Quarter
Apr 10
New
Apr 18
First Quarter
Apr 25
Full

Hourly Weather History & Observations

Time (EDT) Temp. Windchill Dew Point Humidity Pressure Visibility Wind Dir Wind Speed Gust Speed Precip Events Conditions
12:15 AM 36.5 °F 32.7 °F 29.1 °F 75% 30.25 in 10.0 mi West 4.6 mph - N/A   Mostly Cloudy
12:35 AM 37.4 °F - 29.5 °F 73% 30.25 in 10.0 mi Calm Calm - N/A   Scattered Clouds
12:55 AM 35.1 °F - 29.3 °F 80% 30.25 in 10.0 mi Calm Calm - N/A   Scattered Clouds
1:15 AM 34.0 °F - 28.9 °F 82% 30.24 in 10.0 mi Calm Calm - N/A   Clear
1:35 AM 32.0 °F - 28.6 °F 87% 30.24 in 10.0 mi Calm Calm - N/A   Clear
1:55 AM 31.5 °F - 28.6 °F 89% 30.25 in 10.0 mi Calm Calm - N/A   Clear
2:15 AM 31.8 °F - 28.6 °F 88% 30.24 in 10.0 mi Calm Calm - N/A   Scattered Clouds
2:35 AM 30.9 °F - 28.6 °F 91% 30.24 in 10.0 mi Calm Calm - N/A   Mostly Cloudy
2:55 AM 30.2 °F - 28.4 °F 93% 30.24 in 10.0 mi Calm Calm - N/A   Mostly Cloudy
3:15 AM 29.8 °F - 28.2 °F 94% 30.23 in 10.0 mi Calm Calm - N/A   Scattered Clouds
3:35 AM 29.7 °F - 28.4 °F 95% 30.23 in 10.0 mi Calm Calm - N/A   Scattered Clouds
3:55 AM 30.0 °F - 28.4 °F 94% 30.22 in 10.0 mi Calm Calm - N/A   Scattered Clouds
4:15 AM 28.8 °F - 27.5 °F 95% 30.22 in 10.0 mi Calm Calm - N/A   Clear
4:35 AM 29.7 °F - 28.2 °F 94% 30.23 in 10.0 mi Calm Calm - N/A   Mostly Cloudy
4:55 AM 28.8 °F - 27.9 °F 96% 30.23 in 10.0 mi Calm Calm - N/A   Mostly Cloudy
5:15 AM 30.0 °F - 28.4 °F 94% 30.23 in 10.0 mi Calm Calm - N/A   Scattered Clouds
5:35 AM 28.4 °F - 27.5 °F 96% 30.23 in 10.0 mi Calm Calm - N/A   Clear
5:55 AM 29.7 °F - 28.8 °F 96% 30.23 in 10.0 mi Calm Calm - N/A   Clear
6:15 AM 30.7 °F - 29.1 °F 94% 30.23 in 10.0 mi Calm Calm - N/A   Clear
6:35 AM 31.6 °F 27.0 °F 29.5 °F 92% 30.24 in 10.0 mi NW 4.6 mph - N/A   Clear
6:55 AM 34.3 °F - 30.0 °F 84% 30.24 in 10.0 mi Calm Calm - N/A   Mostly Cloudy
7:15 AM 32.4 °F - 29.3 °F 88% 30.24 in 10.0 mi Calm Calm - N/A   Mostly Cloudy
7:35 AM 33.8 °F 25.8 °F 29.8 °F 85% 30.24 in 10.0 mi NNW 10.4 mph 16.1 mph N/A   Scattered Clouds
7:55 AM 37.8 °F 29.8 °F 30.6 °F 75% 30.25 in 10.0 mi NNW 12.7 mph - N/A   Clear
8:15 AM 39.7 °F 31.2 °F 28.6 °F 64% 30.25 in 10.0 mi NNW 16.1 mph - N/A   Clear
8:35 AM 41.2 °F 33.7 °F 27.1 °F 57% 30.26 in 10.0 mi NNW 13.8 mph 18.4 mph N/A   Scattered Clouds
8:55 AM 42.4 °F 35.3 °F 27.5 °F 56% 30.27 in 10.0 mi NW 13.8 mph 19.6 mph N/A   Mostly Cloudy
9:15 AM 43.3 °F 36.5 °F 27.7 °F 54% 30.27 in 10.0 mi NNW 13.8 mph 24.2 mph N/A   Mostly Cloudy
9:35 AM 44.6 °F 38.8 °F 27.7 °F 52% 30.28 in 10.0 mi NW 11.5 mph 18.4 mph N/A   Overcast
9:55 AM 45.1 °F 39.1 °F 27.5 °F 50% 30.28 in 10.0 mi NW 12.7 mph - N/A   Overcast
10:15 AM 45.7 °F 41.5 °F 27.5 °F 49% 30.28 in 10.0 mi North 8.1 mph 17.3 mph N/A   Mostly Cloudy
10:35 AM 46.6 °F - 27.7 °F 48% 30.28 in 10.0 mi NW 10.4 mph 18.4 mph N/A   Mostly Cloudy
10:55 AM 46.8 °F - 27.1 °F 46% 30.28 in 10.0 mi NW 11.5 mph 18.4 mph N/A   Mostly Cloudy
11:15 AM 47.5 °F - 27.9 °F 47% 30.28 in 10.0 mi NNW 15.0 mph 21.9 mph N/A   Scattered Clouds
11:35 AM 47.8 °F - 27.3 °F 45% 30.27 in 10.0 mi North 13.8 mph 27.6 mph N/A   Clear
11:55 AM 49.3 °F - 28.4 °F 45% 30.26 in 10.0 mi NW 10.4 mph - N/A   Clear
12:15 PM 50.0 °F - 28.8 °F 44% 30.26 in 10.0 mi NW 17.3 mph 23.0 mph N/A   Clear
12:35 PM 50.0 °F - 28.4 °F 43% 30.25 in 10.0 mi NNW 12.7 mph 23.0 mph N/A   Clear
12:55 PM 51.3 °F - 29.1 °F 43% 30.25 in 10.0 mi West 9.2 mph - N/A   Scattered Clouds
1:15 PM 51.8 °F - 28.8 °F 41% 30.24 in 10.0 mi NW 13.8 mph 20.7 mph N/A   Clear
1:35 PM 52.9 °F - 29.1 °F 40% 30.24 in 10.0 mi West 6.9 mph - N/A   Clear
1:55 PM 53.1 °F - 29.1 °F 40% 30.23 in 10.0 mi NW 15.0 mph 20.7 mph N/A   Clear
2:15 PM 54.1 °F - 30.0 °F 40% 30.23 in 10.0 mi NNW 13.8 mph 21.9 mph N/A   Clear
2:35 PM 54.0 °F - 29.5 °F 39% 30.22 in 10.0 mi NNW 9.2 mph 18.4 mph N/A   Clear
2:55 PM 54.9 °F - 30.0 °F 39% 30.22 in 10.0 mi NNW 13.8 mph 19.6 mph N/A   Clear
3:15 PM 54.5 °F - 29.8 °F 39% 30.21 in 10.0 mi NNW 13.8 mph 23.0 mph N/A   Scattered Clouds
3:35 PM 54.1 °F - 29.7 °F 39% 30.22 in 10.0 mi NNW 18.4 mph 23.0 mph N/A   Scattered Clouds
3:55 PM 54.9 °F - 29.8 °F 38% 30.21 in 10.0 mi NW 17.3 mph 24.2 mph N/A   Scattered Clouds
4:15 PM 54.5 °F - 29.7 °F 39% 30.21 in 10.0 mi NW 16.1 mph 20.7 mph N/A   Clear
4:35 PM 54.1 °F - 29.7 °F 39% 30.21 in 10.0 mi NNW 13.8 mph 20.7 mph N/A   Clear
4:55 PM 54.5 °F - 30.0 °F 39% 30.21 in 10.0 mi NW 15.0 mph 20.7 mph N/A   Clear
5:15 PM 54.7 °F - 30.4 °F 40% 30.21 in 10.0 mi NW 11.5 mph 20.7 mph N/A   Scattered Clouds
5:35 PM 54.7 °F - 30.2 °F 39% 30.22 in 10.0 mi NW 18.4 mph 23.0 mph N/A   Mostly Cloudy
5:55 PM 53.2 °F - 29.8 °F 41% 30.21 in 10.0 mi NW 11.5 mph - N/A   Scattered Clouds
6:15 PM 52.9 °F - 28.8 °F 40% 30.22 in 10.0 mi NNW 16.1 mph 19.6 mph N/A   Clear
6:35 PM 52.3 °F - 29.1 °F 41% 30.23 in 10.0 mi NNW 12.7 mph - N/A   Clear
6:55 PM 51.8 °F - 28.9 °F 41% 30.23 in 10.0 mi NW 13.8 mph 18.4 mph N/A   Clear
7:15 PM 50.2 °F - 28.2 °F 43% 30.24 in 10.0 mi NNW 11.5 mph 18.4 mph N/A   Clear
7:35 PM 49.3 °F - 28.0 °F 44% 30.25 in 10.0 mi NNW 11.5 mph 16.1 mph N/A   Clear
7:55 PM 47.3 °F - 28.0 °F 47% 30.25 in 10.0 mi NW 6.9 mph - N/A   Clear
8:15 PM 46.6 °F - 28.4 °F 49% 30.25 in 10.0 mi NNW 8.1 mph - N/A   Clear
8:35 PM 43.7 °F - 29.3 °F 57% 30.27 in 10.0 mi Calm Calm - N/A   Clear
8:55 PM 42.6 °F - 29.3 °F 59% 30.27 in 10.0 mi Calm Calm - N/A   Clear
9:15 PM 39.6 °F - 30.0 °F 69% 30.28 in 10.0 mi Calm Calm - N/A   Clear
9:35 PM 39.6 °F - 29.3 °F 67% 30.28 in 10.0 mi Calm Calm - N/A   Clear
9:55 PM 36.9 °F - 30.0 °F 76% 30.29 in 10.0 mi Calm Calm - N/A   Clear
10:15 PM 35.6 °F - 29.5 °F 78% 30.29 in 10.0 mi Calm Calm - N/A   Clear
10:35 PM 34.0 °F - 29.3 °F 83% 30.30 in 10.0 mi Calm Calm - N/A   Clear
10:55 PM 34.2 °F - 29.8 °F 84% 30.30 in 10.0 mi Calm Calm - N/A   Clear
11:15 PM 32.4 °F - 28.8 °F 87% 30.30 in 10.0 mi Calm Calm - N/A   Clear
11:35 PM 32.0 °F - 29.3 °F 90% 30.30 in 10.0 mi Calm Calm - N/A   Clear
11:55 PM 30.9 °F - 28.4 °F 90% 30.30 in 10.0 mi Calm Calm - N/A   Clear